ROMMA est une association bénévole à but non lucratif. Votre soutien est indispensable : ADHERER à ROMMA ou FAIRE un DON

Chamrousse - (38, Isère)

Massif de Belledonne (1800 m)   Longitude: 05° 52' 28" E   Latitude: 45° 06' 28" N Station partenaire n°3
 

Détail journalier du     <<     >>

Température Precipitation Humidité Pression Vent Dir Rafale Dir. rafale
Heure (°C) (mm) (%) (hPa) (km/h) (km/h)
01:00 4.005010186ENE18ENE
02:00 4.1049101813E24ENE
03:00 3.306510188E15ENE
04:00 3.8052101811N15N
05:00 3.805510188NNE18ENE
06:00 4.204910187NNE13NNE
07:00 4.304910197NNE13NNE
08:00 5.304510205ENE15NE
09:00 6.204410205ENE11ENE
10:00 6.604110217ENE16ENE
11:00 7.003710218NNE18NE
12:00 8.203910216NE21NE
13:00 8.405110213E16SSO
14:00 8.706210216SO21O
15:00 10.105210205ONO21ONO
16:00 10.404310207O24ONO
17:00 10.903910208O26NO
18:00 10.904210199O26O
19:00 10.104410198ONO23ONO
20:00 9.1050102011ONO24NO
21:00 8.2050102010NNE21NO
22:00 8.204710205ENE13E
23:00 8.2036102011NE15NE
minuit 8.2040102010NE15NE

Graphique du 02-05-2008

 

Serveur OMMA